MGGTTNCM

Guest
Details From MGGT - La Aurora
To TNCM - St Maarten - Princess Juliana Intl
Flight Number -
Tags Generated
Created
Modified
Stats Distance 1,592 nm / 2,949 km
Max Altitude 0 ft / 0 m
Waypoints 5
Social Downloads 1
Likes 0
Share VATSIM

Download

Looking for another format? Having issues loading an existing format? Contact us
Advertisement - Login to hide

Notes

Generated

Route

MGGT RODBU GABYY PJM07 TNCM

ID Type Via Altitude Latitude Longitude Leg Dist Tot Dist Heading (true) Name
O MGGT APT - 0 ft / 0 m 14.57040˚ -90.53161˚ - 0 nm - -
RODBU FIX - 0 ft / 0 m 17.28694˚ -70.91278˚ 1144 nm 1144 nm 79° / 85° -
GABYY FIX - 0 ft / 0 m 17.69797˚ -66.72661˚ 241 nm 1385 nm 83° / 85° -
PJM07 FIX - 0 ft / 0 m 18.02582˚ -63.24012˚ 200 nm 1585 nm 84° / 85° -
O TNCM APT - 0 ft / 0 m 18.03937˚ -63.11961˚ 6 nm 1592 nm 83° / 83° -

Altitude Profile

Advertisement - Login to hide

Weather


0- 5 10 15 20 25 30 35+ Temperature / ° C

Clouds and Precipitation
Forecast for 2018-05-26 12:00 UTC. Updated 5 hours ago

Ground ~20,000 ft ~40,000 ft Winds

MGGT

Details ICAO MGGT (GUA)
Name La Aurora
Region Guatemala
Timezone America/Guatemala (UTC-6.0)
Stats Elevation 4,952 ft / 1,509 m (AMSL)
Location 14.583272° -90.527473°
Runways 1
Magnetic Variation 1.009° E

METAR

MGGT 261600Z 05004KT 8000 FEW018TCU SCT080 22/17 Q1023 A021 HZ FEW200 TCU S

Decode

TAF

MGGT 2612/2712 00000KT 9999 SCT014 SCT090 TX26/2620Z TN18/2612Z TEMPO 2612/2614 5000 BR -DZ BKN012 BKN080 BECMG 2615/2617 18008KT SCT018 TEMPO 2620/2712 7000 RA BKN014 OVC080 PROB40 2621/2702 TSRA SCT018TCU FEW025CB BECMG 2702/2704 00000KT SCT014 BKN090

Decode

Departure Runways

ID Width Length Bearing (true) Bearing (mag) Surface Threshold Offset Overrun Length
01 196 ft / 60 m 9,841 ft / 3,000 m 17.29° 16.28° Asphalt 0 ft / 0 m 0 ft / 0 m
19 196 ft / 60 m 9,841 ft / 3,000 m 197.29° 196.28° Asphalt 722 ft / 220 m 0 ft / 0 m

TNCM

Details ICAO TNCM (SXM)
Name St Maarten - Princess Juliana Intl
Region Caribbean Netherlands, Aruba, Curaçao, Sint Maarten
Timezone Unknown (UTC+0.0)
Stats Elevation 12 ft / 4 m (AMSL)
Location 18.040889° -63.108974°
Runways 1
Magnetic Variation 14.337° W

METAR

TNCM 261600Z 10011KT 070V140 9999 FEW022 30/22 Q1016 A3001 NOSIG

Decode

TAF

TAF TNCM 261143Z 2612/2712 09010KT P6SM FEW018 FM261400 11014KT P6SM SCT020 FM262300 09010KT P6SM VCSH SCT018 SCT040

Decode

Destination Runways

ID Width Length Bearing (true) Bearing (mag) Surface Threshold Offset Overrun Length
10 148 ft / 45 m 7,464 ft / 2,275 m 81.43° 95.77° Asphalt 0 ft / 0 m 151 ft / 46 m
28 148 ft / 45 m 7,464 ft / 2,275 m 261.44° 275.78° Asphalt 397 ft / 121 m 0 ft / 0 m

Popular Alternatives